#timestamp,LO_Frequency,Hit,StdDev 
1508814015.5,286046986.5,N
1508814035.3,286046987.6,N
1508814055.2,286046989.2,N
1508814075.9,286046985.8,N
1508814095.7,286046989.8,N
1508814115.6,286046986.1,Y
1508814135.4,286046999.6,P
1508814155.2,286046995.7,N
1508814175.1,286046996.5,N
1508814176.0,286046996.5,N
1508814195.8,286047003.4,N
1508814215.6,286047002.0,N
1508814235.5,286047000.5,N
1508814255.3,286046998.0,N
1508814275.1,286046992.1,N
1508814295.9,286046990.3,N
1508814315.7,286046990.7,N
1508814335.5,286046992.2,N
1508814355.4,286046990.4,N
1508814375.2,286046991.3,N
1508814395.1,286046989.1,N
1508814396.0,286046989.1,N
1508814415.8,286046989.3,N
1508814435.6,286046991.5,N
1508814455.5,286046988.1,N
1508814475.3,286046986.8,N
1508814495.1,286046986.8,N
1508814515.9,286046988.4,N
1508814535.7,286046987.5,N
1508814555.5,286046985.7,N
1508814575.4,286046986.6,N
1508814595.2,286046985.0,N
1508814615.0,286046986.4,N
1508814615.9,286046986.4,N
1508814635.8,286046985.9,N
1508814655.6,286046989.3,N
1508814675.4,286046986.8,N
1508814695.3,286046983.7,Y
1508814715.1,286046993.5,P
1508814735.8,286046993.4,P
1508814755.7,286046993.5,P
1508814775.5,286046993.4,Y
1508814795.4,286047002.4,P
1508814815.2,286047000.1,N
1508814835.0,286046999.2,N
1508814835.9,286046999.2,N
1508814855.8,286046998.6,N
1508814875.6,286047001.6,N
1508814895.4,286047000.2,N
1508814915.3,286047003.6,N
1508814935.1,286047005.2,N
1508814936.0,286047005.2,N
1508814955.8,286047002.9,N
1508814975.7,286047004.1,N
1508814995.5,286047001.3,N
1508815015.3,286047002.7,N
1508815035.2,286046998.1,N
1508815055.9,286046995.5,N
1508815075.7,286046995.1,N
1508815095.6,286046996.1,N
1508815115.4,286046997.2,N
1508815135.2,286047000.3,N
1508815155.1,286047002.3,N
1508815156.0,286047002.3,N
1508815175.8,286047002.5,N
1508815195.6,286046997.3,N
1508815215.5,286047004.6,N
1508815235.3,286047010.3,Y
1508815255.1,286047009.0,P
1508815275.9,286047011.2,N
1508815295.7,286047011.4,N
1508815315.6,286047013.7,Y
1508815335.4,286047004.6,P
1508815355.2,286047008.4,P
1508815375.1,286047008.7,P
1508815376.0,286047008.7,Y
1508815395.8,286047002.2,P
1508815415.6,286047002.0,N
1508815435.5,286047003.1,N
1508815455.3,286047003.8,N
1508815475.1,286046999.7,N
1508815495.9,286047001.2,N
1508815515.7,286046999.3,N
1508815535.6,286046998.8,N
1508815555.4,286047000.7,N
1508815575.2,286047002.7,N
1508815595.1,286047005.1,N
1508815596.0,286047005.1,N
1508815615.8,286047002.9,N
1508815635.6,286047005.5,N
1508815655.5,286047005.8,N
1508815675.3,286047005.0,N
1508815695.1,286047001.7,N
1508815715.9,286047001.6,N
1508815735.7,286047005.7,N
1508815755.5,286047001.6,N
1508815775.4,286047004.2,N
1508815795.2,286047000.6,N
1508815815.0,286047001.2,N
1508815815.9,286047001.2,N
1508815835.8,286047000.7,N
1508815855.6,286046999.2,N
1508815875.4,286046999.2,N
1508815895.3,286046999.1,N
1508815915.1,286046998.2,N
1508815935.8,286046998.1,N
1508815955.7,286046998.5,N
1508815975.5,286046998.2,N
1508815995.3,286046995.0,N
1508816015.2,286046996.1,N
1508816035.0,286046995.2,N
1508816035.9,286046995.2,N
1508816055.7,286046994.0,N
1508816075.6,286046995.9,N
1508816095.4,286046993.3,N
1508816115.2,286046990.4,N
1508816135.1,286046988.2,N
1508816136.0,286046988.2,N
1508816155.8,286046983.4,Y
1508816175.7,286046979.6,P
1508816195.5,286046977.7,N
1508816215.3,286046978.9,N
1508816235.2,286046981.0,N
1508816255.9,286046982.3,N
1508816275.7,286046983.5,N
1508816295.6,286046982.9,N
1508816315.4,286046981.0,Y
1508816335.2,286046998.7,P
1508816355.1,286046999.5,N
1508816356.0,286046999.5,N
1508816375.8,286046995.5,N
1508816395.6,286046996.4,N
1508816415.5,286046993.8,N
1508816435.3,286046993.7,N
1508816455.1,286046991.8,N
1508816475.9,286046992.0,N
1508816495.7,286046992.4,N
1508816515.5,286046992.0,N
1508816535.4,286046995.9,N
1508816555.2,286046993.6,N
1508816575.0,286046996.0,N
1508816576.0,286046996.0,N
1508816595.8,286046994.1,N
1508816615.6,286046995.2,N
1508816635.5,286046995.9,N
1508816655.3,286046995.4,N
1508816675.1,286046996.0,N
1508816695.9,286046994.7,N
1508816715.7,286046993.0,N
1508816735.5,286046994.8,N
1508816755.4,286046996.3,N
1508816775.2,286046996.3,N
1508816795.0,286046993.4,N
1508816795.9,286046993.4,N
1508816815.8,286046993.7,N
1508816835.6,286046996.1,N
1508816855.4,286046997.0,N
1508816875.3,286046996.8,N
1508816895.1,286046996.4,N
1508816915.8,286046995.9,N
1508816935.7,286046993.7,Y
1508816955.5,286047004.0,P
1508816975.3,286047004.8,N
1508816995.2,286047007.8,N
1508817015.0,286047010.8,N
1508817015.9,286047010.8,N
1508817035.8,286047008.6,N
1508817055.6,286047008.0,N
1508817075.4,286047009.3,N
1508817095.3,286047011.3,N
1508817115.1,286047015.8,Y
1508817116.0,286047015.8,P
1508817135.8,286047015.1,P
1508817155.7,286047016.8,P
1508817175.5,286047017.2,Y
1508817195.3,286047005.1,P
1508817215.2,286047003.6,N
1508817235.0,286047009.1,N
1508817235.9,286047009.1,N
1508817255.8,286047012.4,Y
1508817275.6,286047002.4,P
1508817295.4,286047001.7,N
1508817315.3,286047001.4,N
1508817335.1,286047003.8,N
1508817336.0,286047003.8,N
1508817355.8,286047004.0,N
1508817375.7,286047003.8,N
1508817395.5,286047006.6,Y
1508817415.3,286046999.4,P
1508817435.2,286046995.5,N
1508817455.0,286046994.4,N
1508817455.9,286046994.4,N
1508817475.7,286046995.8,N
1508817495.6,286046994.9,N
1508817515.4,286046993.6,N
1508817535.3,286046991.8,N
1508817555.1,286046994.7,N
1508817556.0,286046994.7,N
1508817575.8,286046991.9,N
1508817595.7,286046993.6,N
